Anderson, SC

7:12 AM EDT on May 24, 2017 (GMT -0400)
Anderson Regional

Weather History for KAND - August, 2013

Change the Weather History Date:

Saturday, August 17, 2013

  Actual Average Record
Temperature  
Mean Temperature 64 °F -  
Max Temperature 68 °F 88 °F 105 °F (1954)
Min Temperature 60 °F 69 °F 58 °F (1979)
Degree Days  
Heating Degree Days 1    
Growing Degree Days 14 (Base 50)    
Moisture  
Dew Point 62 °F    
Average Humidity 93    
Maximum Humidity 100    
Minimum Humidity 78    
Precipitation  
Precipitation 0.27 in - - ()
Sea Level Pressure  
Sea Level Pressure 30.14 in    
Wind  
Wind Speed 9 mph (ENE)    
Max Wind Speed 16 mph    
Max Gust Speed 23 mph    
Visibility 9 miles    
Events Rain    
Averages and records for this station are not official NWS values.
T = Trace of Precipitation, MM = Missing Value Source: NWS Daily Summary

Daily Weather History Graph

Daily Weather History Graph

Search for Another Location

Airport or City:

Trip Planner

Search our weather history database for the weather conditions in past years. The results will help you decide how hot, cold, wet, or windy it might be!

Date:

Astronomy

Aug. 17, 2013 Rise Set
Actual Time 6:53 AM EDT 8:15 PM EDT
Civil Twilight 6:26 AM EDT 8:42 PM EDT
Nautical Twilight 5:55 AM EDT 9:13 PM EDT
Astronomical Twilight 5:22 AM EDT 9:46 PM EDT
Moon 5:26 PM EDT (8/17) 3:00 AM EDT (8/17)
Length of Visible Light 14h 15m
Length of Day
13h 22m
Waxing Gibbous, 84% of the Moon is Illuminated
Aug 17
Waxing Gibbous
Aug 20
Full
Aug 28
Last Quarter
Sep 5
New
Sep 12
First Quarter

Hourly Weather History & Observations

Time (EDT) Temp. Dew Point Humidity Pressure Visibility Wind Dir Wind Speed Gust Speed Precip Events Conditions
12:56 AM 64.0 °F 57.9 °F 80% 30.14 in 10.0 mi ENE 13.8 mph - N/A   Overcast
1:56 AM 62.1 °F 60.1 °F 93% 30.14 in 8.0 mi East 10.4 mph - 0.00 in Rain Light Rain
2:28 AM 60.8 °F 60.8 °F 100% 30.15 in 5.0 mi ENE 8.1 mph - 0.01 in Rain Light Rain
2:54 AM 60.8 °F 60.8 °F 100% 30.15 in 8.0 mi NE 9.2 mph - 0.01 in   Overcast
2:56 AM 61.0 °F 60.1 °F 97% 30.13 in 8.0 mi ENE 8.1 mph - 0.01 in   Overcast
3:56 AM 61.0 °F 60.1 °F 97% 30.12 in 10.0 mi NE 5.8 mph - 0.01 in   Overcast
4:56 AM 62.1 °F 60.1 °F 93% 30.12 in 10.0 mi NE 5.8 mph - N/A   Overcast
5:43 AM 62.6 °F 60.8 °F 94% 30.13 in 10.0 mi ENE 8.1 mph - N/A   Overcast
5:56 AM 62.1 °F 61.0 °F 96% 30.12 in 10.0 mi ENE 5.8 mph - N/A   Overcast
6:20 AM 62.6 °F 60.8 °F 94% 30.14 in 10.0 mi ENE 4.6 mph - N/A   Overcast
6:30 AM 62.6 °F 60.8 °F 94% 30.14 in 10.0 mi NE 6.9 mph - N/A   Overcast
6:56 AM 63.0 °F 59.0 °F 87% 30.12 in 10.0 mi ENE 13.8 mph 23.0 mph N/A   Overcast
7:56 AM 63.0 °F 61.0 °F 93% 30.14 in 10.0 mi ENE 8.1 mph - N/A   Overcast
8:56 AM 64.0 °F 60.1 °F 87% 30.14 in 10.0 mi ENE 13.8 mph 23.0 mph N/A   Overcast
9:56 AM 64.0 °F 60.1 °F 87% 30.15 in 10.0 mi ENE 12.7 mph - 0.00 in Rain Light Rain
10:56 AM 64.9 °F 61.0 °F 87% 30.17 in 10.0 mi ENE 13.8 mph 18.4 mph 0.00 in   Overcast
11:56 AM 66.0 °F 60.1 °F 81% 30.17 in 10.0 mi NE 15.0 mph - N/A   Overcast
12:09 PM 66.2 °F 60.8 °F 83% 30.18 in 10.0 mi ENE 12.7 mph - N/A   Overcast
12:56 PM 66.9 °F 61.0 °F 81% 30.16 in 10.0 mi ENE 9.2 mph - 0.00 in   Overcast
1:56 PM 68.0 °F 61.0 °F 78% 30.15 in 10.0 mi ENE 16.1 mph - N/A   Overcast
2:56 PM 66.9 °F 63.0 °F 87% 30.14 in 10.0 mi ENE 9.2 mph - 0.00 in Rain Light Rain
3:56 PM 66.9 °F 64.0 °F 90% 30.13 in 10.0 mi ENE 8.1 mph - 0.02 in Rain Light Rain
4:46 PM 66.2 °F 64.4 °F 94% 30.14 in 10.0 mi ENE 8.1 mph - 0.02 in Rain Light Rain
4:56 PM 66.0 °F 64.0 °F 93% 30.12 in 10.0 mi East 8.1 mph - 0.02 in Rain Light Rain
5:28 PM 66.2 °F 64.4 °F 94% 30.14 in 9.0 mi ENE 9.2 mph - 0.02 in Rain Light Rain
5:56 PM 66.0 °F 64.9 °F 96% 30.12 in 10.0 mi ENE 10.4 mph - 0.03 in Rain Light Rain
6:56 PM 66.0 °F 64.9 °F 96% 30.12 in 10.0 mi ENE 10.4 mph - 0.01 in Rain Light Rain
7:38 PM 66.2 °F 64.4 °F 94% 30.14 in 10.0 mi ENE 8.1 mph - 0.01 in Rain Light Rain
7:56 PM 66.0 °F 64.9 °F 96% 30.13 in 8.0 mi East 4.6 mph - 0.02 in Rain Light Rain
8:56 PM 66.0 °F 64.9 °F 96% 30.14 in 10.0 mi East 3.5 mph - 0.01 in Rain Light Rain
9:56 PM 64.9 °F 64.9 °F 100% 30.15 in 10.0 mi East 5.8 mph - 0.01 in Rain Light Rain
10:28 PM 64.4 °F 64.4 °F 100% 30.18 in 10.0 mi ENE 5.8 mph - 0.01 in Rain Light Rain
10:56 PM 64.9 °F 64.9 °F 100% 30.17 in 10.0 mi NE 4.6 mph - 0.02 in Rain Light Rain
11:17 PM 64.4 °F 64.4 °F 100% 30.18 in 2.5 mi NE 6.9 mph - 0.08 in Rain Rain
11:25 PM 64.4 °F 64.4 °F 100% 30.18 in 5.0 mi ENE 4.6 mph - 0.08 in Rain Light Rain
11:56 PM 64.9 °F 64.9 °F 100% 30.17 in 3.0 mi NE 3.5 mph - 0.11 in Rain Light Rain